Location: Riverside Cemetery
(38.3047°N, 99.7773°W)
Time: 06:57:43
(UTC+00:00)

SJ-6B - Pass Details

Date: 19 September 2020
Orbit: 511 x 580 km, 97.6° (Epoch: 19 October)

Event Time Altitude Azimuth Distance (km) Brightness Sun altitude
Exits shadow 01:44:05 19° 79° (E) 1,257 4.1 -13.0°
Maximum altitude 01:44:32 20° 69° (ENE) 1,242 4.1 -13.1°
Drops below altitude 10° 01:47:16 10° 22° (NNE) 1,742 5.3 -13.6°
Sets 01:49:47 0° 5° (N) 2,639 6.4 -14.1°
